SWA944 KPHX-KSAN

Flight info

Callsign SWA944
Flight time 0h 50m
Altitude 30000
Route FYRBD1 MOHAK J2 HOGGZ LUCKI1
Aircraft B38M/M-SDE1FGHILORVWXY/HB1

Departure

Time 2026-04-21 23:48
Airport Phoenix Sky Harbor International Airport (KPHX)

Arrival

Time 2026-04-22 00:38
Airport San Diego International Airport (KSAN)
Time Latitude Longitude Altitude Speed Heading
2026-04-21 23:22 33.43370 -111.99873 1139 ft 0 kts 323°
2026-04-21 23:32 33.43369 -111.99873 1139 ft 0 kts 323°
2026-04-21 23:37 33.43362 -111.99866 1139 ft 1 kts 323°
2026-04-21 23:37 33.43354 -111.99859 1138 ft 1 kts 303°
2026-04-21 23:38 33.43352 -111.99841 1138 ft 2 kts 253°
2026-04-21 23:38 33.43361 -111.99827 1139 ft 2 kts 206°
2026-04-21 23:38 33.43368 -111.99824 1139 ft 1 kts 180°
2026-04-21 23:38 33.43359 -111.99825 1139 ft 3 kts 184°
2026-04-21 23:39 33.43349 -111.99825 1139 ft 0 kts 180°
2026-04-21 23:44 33.43347 -111.99825 1139 ft 2 kts 180°
2026-04-21 23:45 33.43300 -111.99817 1138 ft 7 kts 162°
2026-04-21 23:45 33.43215 -111.99693 1138 ft 18 kts 89°
2026-04-21 23:45 33.43217 -111.99536 1138 ft 18 kts 90°
2026-04-21 23:46 33.43215 -111.99393 1139 ft 15 kts 90°
2026-04-21 23:46 33.43204 -111.99355 1139 ft 0 kts 155°
2026-04-21 23:46 33.43166 -111.99345 1138 ft 14 kts 175°
2026-04-21 23:47 33.43102 -111.99396 1138 ft 12 kts 269°
2026-04-21 23:47 33.43105 -111.99496 1138 ft 11 kts 269°
2026-04-21 23:47 33.43103 -111.99670 1137 ft 48 kts 269°
2026-04-21 23:47 33.43103 -112.00383 1138 ft 119 kts 270°
2026-04-21 23:48 33.43106 -112.01601 1207 ft 165 kts 268°
2026-04-21 23:48 33.43110 -112.02910 1974 ft 157 kts 269°
2026-04-21 23:48 33.43077 -112.04161 2506 ft 152 kts 263°
2026-04-21 23:48 33.42981 -112.05450 2752 ft 166 kts 261°
2026-04-21 23:49 33.42899 -112.06854 3257 ft 174 kts 262°
2026-04-21 23:49 33.42641 -112.08316 3661 ft 186 kts 248°
2026-04-21 23:49 33.42129 -112.09769 4141 ft 196 kts 243°
2026-04-21 23:49 33.41543 -112.11366 4404 ft 224 kts 246°
2026-04-21 23:50 33.40958 -112.13187 4873 ft 243 kts 248°
2026-04-21 23:50 33.40328 -112.15088 5431 ft 255 kts 239°
2026-04-21 23:50 33.39144 -112.16715 5958 ft 266 kts 212°
2026-04-21 23:50 33.37439 -112.17535 6700 ft 270 kts 192°
2026-04-21 23:51 33.35570 -112.17699 7487 ft 275 kts 178°
2026-04-21 23:51 33.33699 -112.17275 8373 ft 276 kts 166°
2026-04-21 23:51 33.31857 -112.16623 9259 ft 279 kts 164°
2026-04-21 23:51 33.30019 -112.15916 10138 ft 282 kts 164°
2026-04-21 23:52 33.28106 -112.15215 10736 ft 295 kts 169°
2026-04-21 23:52 33.26046 -112.15115 11287 ft 307 kts 192°
2026-04-21 23:52 33.24029 -112.16139 11877 ft 320 kts 216°
2026-04-21 23:52 33.22469 -112.18038 12665 ft 328 kts 234°
2026-04-21 23:53 33.21404 -112.20436 13572 ft 332 kts 248°
2026-04-21 23:53 33.20898 -112.23138 14501 ft 338 kts 262°
2026-04-21 23:53 33.20857 -112.25927 15381 ft 342 kts 266°
2026-04-21 23:53 33.20453 -112.28689 16158 ft 343 kts 248°
2026-04-21 23:54 33.19336 -112.31200 17040 ft 342 kts 235°
2026-04-21 23:54 33.17918 -112.33476 17834 ft 346 kts 231°
2026-04-21 23:54 33.16399 -112.35679 18610 ft 349 kts 230°
2026-04-21 23:54 33.14835 -112.37927 19388 ft 352 kts 231°
2026-04-21 23:55 33.13302 -112.40190 20224 ft 354 kts 232°
2026-04-21 23:55 33.11780 -112.42494 20954 ft 357 kts 233°
2026-04-21 23:55 33.10261 -112.44823 21601 ft 362 kts 233°
2026-04-21 23:55 33.08713 -112.47212 22304 ft 365 kts 233°
2026-04-21 23:56 33.07153 -112.49624 23001 ft 368 kts 233°
2026-04-21 23:56 33.05592 -112.52035 23634 ft 371 kts 233°
2026-04-21 23:56 33.04023 -112.54457 24324 ft 373 kts 233°
2026-04-21 23:56 33.02421 -112.56928 24969 ft 375 kts 233°
2026-04-21 23:57 33.00828 -112.59384 25491 ft 380 kts 233°
2026-04-21 23:57 32.99218 -112.61864 26114 ft 381 kts 234°
2026-04-21 23:57 32.97623 -112.64382 26923 ft 377 kts 237°
2026-04-21 23:57 32.96301 -112.67020 27807 ft 369 kts 245°
2026-04-21 23:58 32.95408 -112.69827 28619 ft 364 kts 253°
2026-04-21 23:58 32.94848 -112.72716 29380 ft 360 kts 258°
2026-04-21 23:58 32.94418 -112.75634 29875 ft 361 kts 259°
2026-04-21 23:59 32.93657 -112.81615 29923 ft 360 kts 260°
2026-04-21 23:59 32.92909 -112.87498 29922 ft 359 kts 259°
2026-04-22 00:00 32.92133 -112.93366 29920 ft 360 kts 259°
2026-04-22 00:00 32.91344 -112.99210 29907 ft 361 kts 259°
2026-04-22 00:01 32.90523 -113.05209 29913 ft 379 kts 259°
2026-04-22 00:01 32.90089 -113.08374 29916 ft 391 kts 259°
2026-04-22 00:01 32.89644 -113.11605 29913 ft 402 kts 259°
2026-04-22 00:01 32.89186 -113.14924 29903 ft 414 kts 260°
2026-04-22 00:02 32.88719 -113.18316 29899 ft 420 kts 259°
2026-04-22 00:02 32.87777 -113.25145 29897 ft 418 kts 260°
2026-04-22 00:03 32.86835 -113.31938 29909 ft 418 kts 259°
2026-04-22 00:03 32.85889 -113.38728 29904 ft 417 kts 260°
2026-04-22 00:04 32.84939 -113.45509 29916 ft 417 kts 259°
2026-04-22 00:04 32.83988 -113.52274 29906 ft 416 kts 259°
2026-04-22 00:05 32.83036 -113.59029 29906 ft 416 kts 259°
2026-04-22 00:05 32.82078 -113.65790 29916 ft 414 kts 259°
2026-04-22 00:06 32.81118 -113.72540 29916 ft 415 kts 259°
2026-04-22 00:06 32.80154 -113.79291 29912 ft 416 kts 259°
2026-04-22 00:07 32.79187 -113.86042 29914 ft 414 kts 259°
2026-04-22 00:07 32.78224 -113.92735 29908 ft 413 kts 259°
2026-04-22 00:08 32.77480 -113.99546 29885 ft 416 kts 265°
2026-04-22 00:08 32.77332 -114.06361 29906 ft 415 kts 268°
2026-04-22 00:09 32.77512 -114.13215 29902 ft 418 kts 271°
2026-04-22 00:09 32.77886 -114.20189 29911 ft 429 kts 271°
2026-04-22 00:10 32.78243 -114.27260 29943 ft 428 kts 270°
2026-04-22 00:10 32.78564 -114.34279 29943 ft 428 kts 271°
2026-04-22 00:11 32.79257 -114.40271 29927 ft 431 kts 279°
2026-04-22 00:11 32.80896 -114.47120 29937 ft 434 kts 284°
2026-04-22 00:12 32.82814 -114.53871 29943 ft 430 kts 285°
2026-04-22 00:12 32.84743 -114.60622 29950 ft 434 kts 285°
2026-04-22 00:13 32.86331 -114.66274 29927 ft 432 kts 284°
2026-04-22 00:13 32.87888 -114.74318 29918 ft 426 kts 271°
2026-04-22 00:14 32.87970 -114.81254 29939 ft 423 kts 266°
2026-04-22 00:14 32.87732 -114.88272 29923 ft 422 kts 265°
2026-04-22 00:15 32.87492 -114.95219 29917 ft 421 kts 265°
2026-04-22 00:15 32.87322 -115.01017 29919 ft 422 kts 266°
2026-04-22 00:16 32.87112 -115.09131 29921 ft 421 kts 266°
2026-04-22 00:16 32.86940 -115.16081 29922 ft 421 kts 266°
2026-04-22 00:17 32.86767 -115.23074 29764 ft 424 kts 265°
2026-04-22 00:17 32.86679 -115.26563 29388 ft 420 kts 265°
2026-04-22 00:17 32.86594 -115.29981 28890 ft 411 kts 265°
2026-04-22 00:17 32.86503 -115.33321 28383 ft 402 kts 265°
2026-04-22 00:18 32.86369 -115.35508 28025 ft 398 kts 262°
2026-04-22 00:18 32.85867 -115.39825 27344 ft 399 kts 259°
2026-04-22 00:18 32.85386 -115.43070 26827 ft 403 kts 258°
2026-04-22 00:18 32.84878 -115.46363 26277 ft 403 kts 258°
2026-04-22 00:19 32.84376 -115.49630 25948 ft 401 kts 258°
2026-04-22 00:19 32.83855 -115.52867 25936 ft 405 kts 257°
2026-04-22 00:19 32.83303 -115.56149 25749 ft 410 kts 257°
2026-04-22 00:19 32.82733 -115.59499 25253 ft 412 kts 257°
2026-04-22 00:20 32.82172 -115.62813 24723 ft 408 kts 257°
2026-04-22 00:20 32.81807 -115.64983 24362 ft 404 kts 258°
2026-04-22 00:20 32.81267 -115.68208 23826 ft 398 kts 257°
2026-04-22 00:20 32.80553 -115.72497 23097 ft 398 kts 257°
2026-04-22 00:21 32.80019 -115.75708 22593 ft 398 kts 257°
2026-04-22 00:21 32.79660 -115.77879 22252 ft 396 kts 257°
2026-04-22 00:21 32.79137 -115.81039 21739 ft 392 kts 257°
2026-04-22 00:21 32.78459 -115.85235 21042 ft 388 kts 259°
2026-04-22 00:22 32.78091 -115.88422 20558 ft 389 kts 262°
2026-04-22 00:22 32.77918 -115.90530 20204 ft 389 kts 263°
2026-04-22 00:22 32.77704 -115.93707 19694 ft 386 kts 264°
2026-04-22 00:22 32.77443 -115.97907 19050 ft 382 kts 264°
2026-04-22 00:23 32.77307 -116.00039 18731 ft 382 kts 264°
2026-04-22 00:23 32.77033 -116.04206 18014 ft 381 kts 263°
2026-04-22 00:23 32.76814 -116.07362 17531 ft 381 kts 263°
2026-04-22 00:23 32.76588 -116.10479 17072 ft 377 kts 263°
2026-04-22 00:24 32.76436 -116.12530 16763 ft 376 kts 263°
2026-04-22 00:24 32.76205 -116.15588 16153 ft 373 kts 263°
2026-04-22 00:24 32.75974 -116.18631 15685 ft 371 kts 263°
2026-04-22 00:24 32.75740 -116.21681 15190 ft 368 kts 263°
2026-04-22 00:25 32.75507 -116.24691 14695 ft 367 kts 263°
2026-04-22 00:25 32.75276 -116.27670 14221 ft 355 kts 263°
2026-04-22 00:25 32.75058 -116.30512 13766 ft 340 kts 263°
2026-04-22 00:25 32.74780 -116.34119 13189 ft 322 kts 263°
2026-04-22 00:26 32.74647 -116.35837 12911 ft 314 kts 263°
2026-04-22 00:26 32.74449 -116.38389 12510 ft 302 kts 263°
2026-04-22 00:26 32.74198 -116.41600 12002 ft 290 kts 263°
2026-04-22 00:26 32.74075 -116.43179 11738 ft 284 kts 262°
2026-04-22 00:27 32.73893 -116.45483 11334 ft 276 kts 262°
2026-04-22 00:27 32.73661 -116.48429 10871 ft 265 kts 262°
2026-04-22 00:27 32.73488 -116.50577 10541 ft 262 kts 262°
2026-04-22 00:27 32.73290 -116.52725 10181 ft 257 kts 261°
2026-04-22 00:28 32.73153 -116.54115 10008 ft 255 kts 261°
2026-04-22 00:28 32.72948 -116.56160 9793 ft 247 kts 261°
2026-04-22 00:28 32.72749 -116.58182 9445 ft 246 kts 261°
2026-04-22 00:28 32.72551 -116.60204 9145 ft 242 kts 261°
2026-04-22 00:29 32.72297 -116.62826 8736 ft 240 kts 262°
2026-04-22 00:29 32.72107 -116.64787 8456 ft 236 kts 262°
2026-04-22 00:29 32.71987 -116.66057 8253 ft 235 kts 262°
2026-04-22 00:29 32.71780 -116.68610 7862 ft 231 kts 263°
2026-04-22 00:30 32.71687 -116.69870 7713 ft 231 kts 264°
2026-04-22 00:30 32.71541 -116.71826 7401 ft 244 kts 263°
2026-04-22 00:30 32.71387 -116.73837 7088 ft 245 kts 264°
2026-04-22 00:30 32.71234 -116.75837 6783 ft 242 kts 264°
2026-04-22 00:31 32.71030 -116.78474 6363 ft 240 kts 264°
2026-04-22 00:31 32.70929 -116.79776 6148 ft 237 kts 265°
2026-04-22 00:31 32.70647 -116.82276 5988 ft 222 kts 256°
2026-04-22 00:31 32.70171 -116.83988 5872 ft 214 kts 250°
2026-04-22 00:32 32.69616 -116.85619 5658 ft 212 kts 249°
2026-04-22 00:32 32.69251 -116.86705 5562 ft 212 kts 250°
2026-04-22 00:32 32.68733 -116.88327 5352 ft 215 kts 251°
2026-04-22 00:32 32.68051 -116.90624 4699 ft 227 kts 252°
2026-04-22 00:33 32.67545 -116.92398 4300 ft 229 kts 256°
2026-04-22 00:33 32.67305 -116.94235 4030 ft 220 kts 275°
2026-04-22 00:33 32.67636 -116.95933 3787 ft 209 kts 288°
2026-04-22 00:33 32.68115 -116.97534 3591 ft 197 kts 289°
2026-04-22 00:34 32.68402 -116.98535 3457 ft 192 kts 287°
2026-04-22 00:34 32.68785 -117.00006 3219 ft 178 kts 286°
2026-04-22 00:34 32.69116 -117.01364 3034 ft 168 kts 286°
2026-04-22 00:34 32.69432 -117.02687 2880 ft 164 kts 285°
2026-04-22 00:35 32.69727 -117.03928 2723 ft 152 kts 286°
2026-04-22 00:35 32.70021 -117.05109 2577 ft 146 kts 287°
2026-04-22 00:35 32.70303 -117.06252 2339 ft 143 kts 285°
2026-04-22 00:35 32.70570 -117.07376 2159 ft 144 kts 285°
2026-04-22 00:36 32.70854 -117.08508 1974 ft 139 kts 287°
2026-04-22 00:36 32.71225 -117.09983 1743 ft 141 kts 285°
2026-04-22 00:36 32.71395 -117.10710 1603 ft 138 kts 285°
2026-04-22 00:36 32.71656 -117.11813 1408 ft 138 kts 285°
2026-04-22 00:37 32.71907 -117.12937 1205 ft 142 kts 283°
2026-04-22 00:37 32.72150 -117.14048 1034 ft 137 kts 285°
2026-04-22 00:37 32.72422 -117.15128 805 ft 137 kts 285°
2026-04-22 00:37 32.72778 -117.16573 447 ft 138 kts 284°
2026-04-22 00:38 32.72955 -117.17312 243 ft 137 kts 283°
2026-04-22 00:38 32.73214 -117.18378 35 ft 129 kts 284°
2026-04-22 00:38 32.73412 -117.19206 27 ft 68 kts 285°
2026-04-22 00:38 32.73519 -117.19659 27 ft 23 kts 285°
2026-04-22 00:39 32.73524 -117.19779 26 ft 18 kts 254°
2026-04-22 00:39 32.73488 -117.19897 26 ft 9 kts 252°
2026-04-22 00:39 32.73489 -117.19945 26 ft 8 kts 282°
2026-04-22 00:39 32.73505 -117.20013 26 ft 8 kts 286°
2026-04-22 00:40 32.73522 -117.20084 25 ft 9 kts 285°
2026-04-22 00:40 32.73545 -117.20183 25 ft 9 kts 283°
2026-04-22 00:40 32.73531 -117.20225 25 ft 8 kts 216°
2026-04-22 00:40 32.73478 -117.20281 25 ft 8 kts 251°
2026-04-22 00:41 32.73468 -117.20315 25 ft 4 kts 248°
2026-04-22 00:41 32.73457 -117.20333 25 ft 0 kts 231°
2026-04-22 00:41 32.73454 -117.20337 25 ft 0 kts 232°
2026-04-22 00:41 32.73454 -117.20338 25 ft 0 kts 232°